Home > Weather > Pierre > Past weeks

Flag for USA Past Weather in Pierre, South Dakota, USA — Yesterday and Last 2 Weeks

Now
67 °F

Sunny.


Feels Like: 67 °F
Forecast: 55 / 81 °F
Wind: 7 mph from West

Location: Pierre Regional Airport

Current Time: Aug 27, 2016 at 10:35:56 AM

Latest Report: Aug 27, 2016 at 9:53 AM


Visibility: 10 mi

Pressure: 29.93 "Hg

Humidity: 66%

Dew Point: 55 °F

Location of PierreLocation

Past Weather in Pierre — Graph

°F

Pierre Temperature Yesterday

Maximum temperature yesterday: 66 °F (at 6:53 PM)
Minimum temperature yesterday: 46 °F (at 3:53 AM)
Average temperature yesterday: 56 °F

High & Low Weather Summary for the Past Weeks

 TemperatureHumidityPressure
High98 °F (Aug 22, 3:53 PM)97% (Aug 20, 2:53 AM)30.20 "Hg (Aug 20, 2:53 AM)
Low46 °F (Aug 26, 3:53 AM)25% (Aug 21, 4:53 PM)29.54 "Hg (Aug 22, 5:53 PM)
Average69 °F64%29.94 "Hg
* Reported Aug 12 8:53 AM — Aug 27 8:53 AM, Pierre, Weather by CustomWeather, © 2016

Note: Actual official high and low records may vary slightly from our data, if they occured in-between our weather recording intervals... More about our weather records

Advertising

Pierre Weather History for the Previous 24 Hours

Scroll right to see more
 ConditionsComfort  
Time TempWeatherWind HumidityBarometerVisibility
8:53 AM
Sat, Aug 27
60 °FSunny.12 mph86%29.96 "Hg10 mi
7:53 AM56 °FClear.6 mph97%29.95 "Hg10 mi
6:53 AM56 °FClear.7 mph93%29.94 "Hg10 mi
5:53 AM57 °FClear.14 mph93%29.88 "Hg10 mi
4:53 AM56 °FClear.8 mph93%29.93 "Hg10 mi
3:53 AM56 °FClear.8 mph93%29.96 "Hg10 mi
2:53 AM58 °FClear.8 mph87%29.97 "Hg10 mi
1:53 AM58 °FClear.9 mph90%29.98 "Hg10 mi
12:53 AM58 °FClear.10 mph87%29.98 "Hg10 mi
11:53 PM
Fri, Aug 26
58 °FClear.9 mph87%29.99 "Hg10 mi
10:53 PM57 °FPassing clouds.5 mph87%30.01 "Hg10 mi
9:53 PM58 °FPassing clouds.6 mph84%30.02 "Hg10 mi
8:53 PM59 °FSunny.8 mph84%30.01 "Hg10 mi
7:53 PM65 °FSunny.7 mph68%30.01 "Hg10 mi
6:53 PM66 °FPartly sunny.10 mph68%30.01 "Hg10 mi
5:53 PM64 °FPartly sunny.12 mph73%30.03 "Hg10 mi
4:53 PM62 °FScattered clouds.9 mph78%30.06 "Hg10 mi
3:53 PM61 °FOvercast.7 mph78%30.09 "Hg10 mi
2:53 PM60 °FMostly cloudy.8 mph83%30.09 "Hg10 mi
1:53 PM59 °FLight rain. Cloudy.8 mph87%30.11 "Hg8 mi
12:53 PM58 °FLight rain. Fog.10 mph97%30.14 "Hg5 mi
11:53 AM58 °FLight rain. Overcast.7 mph93%30.18 "Hg9 mi
10:53 AM57 °FLight rain. More clouds than sun.9 mph90%30.20 "Hg10 mi
Weather by CustomWeather, © 2016

See weather overviewHow to use our weather pages